Printer-friendly version

IAU Minor Planet Center

Minor Planet Center

MPEC 2003-E26 : 1996 FS1

The following Minor Planet Electronic Circular may be linked-to from your own Web pages, but must not otherwise be redistributed electronically.


Read MPEC 2003-E25 Read MPEC 2003-E27


M.P.E.C. 2003-E26                                Issued 2003 Mar. 7, 16:23 UT

     The Minor Planet Electronic Circulars contain information on unusual
         minor planets and routine data on comets.  They are published
   on behalf of Commission 20 of the International Astronomical Union by the
          Minor Planet Center, Smithsonian Astrophysical Observatory,
                          Cambridge, MA 02138, U.S.A.

             Prepared using the Tamkin Foundation Computer Network

                              MPC@CFA.HARVARD.EDU
          URL http://cfa-www.harvard.edu/iau/mpc.html  ISSN 1523-6714

                                   1996 FS1

                           Revision to MPEC 1996-F05

Additional Observations:
     J96F01S  C2003 03 06.36634 11 53 59.51 -04 28 24.9          19.2        704
     J96F01S  C2003 03 06.37924 11 53 55.07 -04 26 49.7          18.8        704
     J96F01S  C2003 03 06.39223 11 53 50.56 -04 25 14.7          19.0        704
     J96F01S  C2003 03 06.40515 11 53 46.19 -04 23 38.4          19.2        704
     J96F01S  C2003 03 06.94431 11 50 48.93 -03 18 33.4          18.6 R      620
     J96F01S  C2003 03 06.95092 11 50 46.70 -03 17 45.1          18.5 R      620
     J96F01S  C2003 03 06.95298 11 50 45.96 -03 17 34.5                      J95
     J96F01S  C2003 03 06.95847 11 50 44.20 -03 16 51.2          18.6 R      620
     J96F01S  C2003 03 06.95992 11 50 43.62 -03 16 45.1          18.2 R      J95
     J96F01S  C2003 03 07.22321 11 49 18.52 -02 45 33.7          18.3 R      649
     J96F01S  C2003 03 07.22428 11 49 18.18 -02 45 26.5          18.0 R      649
     J96F01S  C2003 03 07.22535 11 49 17.85 -02 45 18.9          18.2 R      649
     J96F01S  C2003 03 07.26498 11 49 05.12 -02 40 37.9          18.5 R      448
     J96F01S  C2003 03 07.27104 11 49 03.12 -02 39 55.3          18.6 R      448
     J96F01S  C2003 03 07.27712 11 49 01.12 -02 39 12.8          18.6 R      448
     J96F01S  C2003 03 07.30777 11 48 50.94 -02 35 37.5          18.6 R      711
     J96F01S  C2003 03 07.30977 11 48 50.03 -02 35 27.2          19.0 R      734
     J96F01S  C2003 03 07.31091 11 48 49.86 -02 35 14.4          18.5 R      711
     J96F01S  C2003 03 07.31406 11 48 48.95 -02 34 52.2          18.2 R      711
     J96F01S  C2003 03 07.31473 11 48 48.43 -02 34 51.0          18.6 R      734
     J96F01S  C2003 03 07.31652 11 48 47.84 -02 34 35.6          19.9 R      446
     J96F01S  C2003 03 07.31933 11 48 46.91 -02 34 18.8          18.5 R      734
     J96F01S  C2003 03 07.32332 11 48 45.70 -02 33 49.5          19.7 R      446
     J96F01S  C2003 03 07.34814 11 48 37.44 -02 30 54.5          19.9 R      446
     J96F01S  C2003 03 07.39734 11 48 21.67 -02 25 11.0          18.3 R      926
     J96F01S  C2003 03 07.39799 11 48 21.44 -02 25 06.3          18.2 R      926
     J96F01S  C2003 03 07.39865 11 48 21.26 -02 25 02.6          18.4 R      926
     J96F01S  C2003 03 07.39972 11 48 20.85 -02 24 55.6          20.3 R      333
     J96F01S  C2003 03 07.40303 11 48 19.82 -02 24 30.1          20.5 R      333
     J96F01S  C2003 03 07.40627 11 48 18.66 -02 24 08.9          20.2 R      333
     J96F01S  C2003 03 07.52524 11 47 41.94 -02 09 48.4          17.2 R      474
     J96F01S  C2003 03 07.52755 11 47 41.24 -02 09 31.5          17.1 R      474
     J96F01S  C2003 03 07.53196 11 47 39.73 -02 09 01.9          17.4 R      474

Observer details:
333 Desert Eagle Observatory.  Observer W. K. Y. Yeung.  0.45-m f/3
    Schmidt-Cassegrain + CCD.
446 Kingsnake Observatory.  Observer J. McClusky.  0.45-m f/4.5 Newtonian
    + CCD.
448 Desert Moon Observatory.  Observer B. Stevens.  0.3-m Schmidt-Cassegrain
    + CCD.
474 Mount John Observatory, Lake Tekapo.  Observers A. C. Gilmore,
    P. M. Kilmartin.  1.0-m f/7.7 reflector + CCD.
620 Observatorio Astronomico de Mallorca.  Observers S. Sanchez, R. Stoss.
    0.30-m f/9 Schmidt-Cassegrain + CCD.
649 Powell Observatory, Louisburg.  Observers M. Glaze, R. Trentman.  0.75-m
    Newtonian + CCD.
704 Lincoln Laboratory ETS, New Mexico.  Observers M. Blythe, F. Shelly,
    M. Bezpalko, R. Huber, L. Manguso, S. Adams, D. Torres, T. Brothers,
    S. Partridge.  Measurers J. Stuart, R. Sayer, J. Evans, P. Hopman.  1.0-m
    f/2.15 reflector + CCD.
711 McDonald Observatory.  Observer P. J. Shelus.  0.76-m reflector with prime
    focus corrector + CCD.
734 Farpoint Observatory.  Observer G. Hug.  0.30-m Schmidt-Cassegrain + CCD.
926 Tenagra II Observatory.  Observers P. R. Holvorcem, M. Schwartz.  0.81-m
    f/7 Ritchey-Chretien + CCD.
J95 Great Shefford.  Observer P. Birtwhistle.  0.30-m f/6.3 Schmidt-Cassegrain
    + CCD.

Orbital elements:
1996 FS1
Epoch 2003 June 10.0 TT = JDT 2452800.5                 MPC
M  92.47371              (2000.0)            P               Q
n   0.56481908     Peri.  224.43367     +0.79618081     -0.59559688
a   1.4494274      Node   170.22743     +0.55629895     +0.78985325
e   0.7612020      Incl.   38.89851     -0.23796552     -0.14627441
P   1.74           H   20.4           G   0.15           U   5
Residuals in seconds of arc
960317 691  1.1+  0.0     030306 704  0.4-  0.2-    030307 711  0.6-  0.6+
960317 691  0.1+  0.1+    030306 704  0.1+  0.0     030307 711  1.3+  0.8+
960317 691  0.1+  0.0     030306 704  0.1-  0.6-    030307 734  0.0   0.4+
960318 691  0.5+  0.0     030306 704  1.4+  0.7+    030307 446  0.5-  0.3-
960318 691  0.6+  0.1+    030306 620  0.4+  0.3-    030307 734  0.1-  0.4+
960318 691  0.4+  0.2+    030306 620  0.1+  0.8+    030307 446  1.0+  1.9-
960319 691  1.0-  0.1-    030306 J95  0.1+  0.5+    030307 446  0.3-  0.6-
960319 691  0.7-  0.3-    030306 620  0.4+  0.8+    030307 926  0.0   0.0
960319 691  0.9-  0.3-    030306 J95  0.4-  0.3+    030307 926  0.3-  0.1+
960322 691  0.3-  0.4+    030307 649  0.3-  0.4+    030307 926  0.3+  0.8-
960322 691  0.4-  0.2+    030307 649  0.1-  0.1+    030307 333  0.5-  1.0-
960322 691  0.3-  0.1+    030307 649  0.2+  0.1+    030307 333  0.3+  1.4+
960323 658  0.2-  0.2-    030307 448  0.1+  0.0     030307 333  1.2-  0.0
960323 658  0.9-  0.4-    030307 448  0.1+  0.1+    030307 474  0.4-  0.3-
960323 658  0.1+  0.3-    030307 448  0.1+  0.1-    030307 474  0.3+  0.6+
960328 413  0.9+  0.1+    030307 711  0.1+  0.5-    030307 474  0.9-  0.4-
960328 413  1.0+  0.5+    030307 734  0.4-  1.0-

Ephemeris:
1996 FS1                 a,e,i = 1.45, 0.76, 39                  q = 0.3461
Date    TT    R. A. (2000) Decl.     Delta      r     Elong.  Phase     V
2003 03 02    12 21.67   -14 18.0    0.276    1.235   148.5    24.8    19.2
2003 03 07    11 50.50   -03 11.7    0.310    1.296   166.3    10.4    19.1
2003 03 12    11 26.93   +05 23.5    0.362    1.355   178.2     1.3    19.0
2003 03 17    11 09.42   +11 35.6    0.425    1.412   166.7     9.4    19.9
2003 03 22    10 56.61   +15 57.6    0.497    1.467   156.8    15.5    20.6
2003 03 27    10 47.42   +19 00.9    0.576    1.519   148.5    20.1    21.1
2003 04 01    10 41.07   +21 08.5    0.661    1.570   141.4    23.4    21.6

Brian G. Marsden             (C) Copyright 2003 MPC           M.P.E.C. 2003-E26

Read MPEC 2003-E25 Read MPEC 2003-E27


Our Web policy. Index to the CBAT/MPC/ICQ pages.


Valid HTML 4.01!